Tracking 20623 objects as of 3-Apr-2020
HD Live streaming from Space Station
objects crossing your sky now

COSMOS 637

Track COSMOS 637 now!
COSMOS 637 is classified as:


NORAD ID: 7229
Int'l Code: 1974-017A
Perigee: 35,474.1 km
Apogee: 35,832.7 km
Inclination: 6.5 °
Period: 1,428.9 minutes
Semi major axis: 42024 km
RCS: 2.5118 m2 (large)
Launch date: March 26, 1974
Source: Commonwealth of Independent States (former USSR) (CIS)
Launch site: TYURATAM MISSILE AND SPACE COMPLEX (TTMTR)
aabbcc
Your satellite tracking list
Your tracking list is empty




NASA's NSSDC Master Catalog

Two Line Element Set (TLE):
1  7229U 74017A   20093.76229874  .00000111  00000-0  00000+0 0  9990
2  7229   6.4877 295.0720 0042671   1.4250 358.4093  1.00774540 99357
Source of the keplerian elements: AFSPC